Location: ???? ???????
(38.1657°N, 24.3963°E)
Time: 01:06:54
(UTC+00:00)

Daily predictions for brighter satellites

Satellite Brightness Start Highest point End
(mag) Time Altitude Azimuth Time Altitude Azimuth Time Altitude Azimuth
Cosmos 1980 Rocket 4.1 01:05:33 22° N 01:05:33 22° N 01:07:36 10° NNE
Cosmos 2322 Rocket 3.3 01:12:29 41° E 01:12:29 41° E 01:16:57 10° NE
Lacrosse 5 4.3 01:22:28 13° N 01:22:28 13° N 01:23:52 10° N
SL-16 R/B 2.8 01:24:46 53° NE 01:24:46 53° NE 01:29:09 10° NNE
Cosmos 1763 Rocket 3.9 01:45:12 59° N 01:45:12 59° N 01:49:29 10° NNE
USA 267 3.3 01:42:38 10° NE 01:49:02 60° NW 01:49:37 58° WNW
IRIDIUM 103 4.4 01:47:03 10° N 01:52:16 72° E 01:53:15 57° SSE
ARIANE 5 R/B 3.8 01:47:30 10° N 01:50:05 28° NNW 01:50:05 28° NNW
Cosmos 1707 Rocket 4.2 01:55:16 53° NE 01:55:16 53° NE 01:58:47 10° NNE
DEBRIS 4.1 01:57:32 35° ENE 01:57:32 35° ENE 02:01:13 10° ESE
Cosmos 540 Rocket 3.7 01:59:02 53° SSE 02:00:02 66° ESE 02:05:11 10° NNE
Meteor 1-5 Rocket 4.3 01:55:47 10° NNW 02:00:06 57° NW 02:00:06 57° NW
MSX 3.7 01:58:57 10° N 02:04:43 73° WNW 02:05:30 64° SW
ERS-2 4.2 02:02:19 10° SE 02:05:27 27° ENE 02:08:37 10° N
Cosmos 44 Rocket 3.1 02:06:03 78° N 02:06:03 78° N 02:10:39 10° NNE
Gbstr 26 Del rocket 4.3 02:03:39 26° NW 02:08:42 84° SW 02:15:53 10° SE
Meteor 1-10 Rocket 4.4 02:09:13 55° WNW 02:09:13 55° WNW 02:14:55 10° N
ATLAS 2AS CENTAUR R/B 3.7 02:02:10 10° NNW 02:09:20 49° NE 02:15:54 10° SE
IRIDIUM 106 4.1 02:05:21 10° N 02:10:35 76° W 02:11:35 57° SSW
Cosmos 2333 Rocket 4.1 02:06:42 10° SSE 02:11:31 29° ESE 02:16:23 10° NE
Cosmos 990 Rocket 3.8 02:07:26 10° NNW 02:12:37 69° WSW 02:17:48 10° S
Cosmos 1733 Rocket 4.1 02:08:35 10° N 02:12:45 44° E 02:16:52 10° SSE
PAYLOAD A 3.9 02:10:21 10° NNE 02:15:03 75° ESE 02:17:05 34° S
Landsat 5 3.6 02:12:19 10° SSE 02:16:50 86° ENE 02:21:19 10° NNW
Cosmos 1570 Rocket 3.9 02:18:01 46° SSW 02:19:39 83° WNW 02:25:02 10° NNE
ADEOS II 4.4 02:18:19 10° NW 02:18:19 10° NW 02:18:19 10° NW
USA 234 4.0 02:15:17 10° ESE 02:21:34 52° NE 02:27:52 10° NW
SL-4 R/B 3.5 02:21:54 28° NNW 02:22:15 28° NNW 02:26:20 10° NE
IDEFIX/ARIANE 42P 3.5 02:18:35 10° N 02:22:24 31° NW 02:22:24 31° NW
CZ-2C R/B 4.4 02:21:44 10° N 02:23:31 24° NNW 02:23:31 24° NNW
PSLV R/B 3.3 02:23:13 10° NNE 02:27:25 86° WNW 02:28:44 43° SSW
Cosmos 1862 Rocket 3.6 02:26:21 20° S 02:29:18 78° E 02:33:39 10° N
CSL-04 DEB 4.4 02:25:58 10° S 02:30:17 72° WSW 02:34:39 10° NNW
SL-8 R/B 4.5 02:31:35 33° SSW 02:31:35 33° SSW 02:35:05 10° SSE
H-2A R/B 2.0 02:30:17 10° S 02:34:37 62° W 02:39:03 10° NNW
Cosmos 2360 Rocket 2.1 02:33:12 33° SW 02:35:48 67° WNW 02:41:28 10° NNE
ALOS 3.5 02:35:23 10° NNE 02:39:49 42° E 02:44:14 10° S
Cosmos 1000 Rocket 4.4 02:38:19 10° SSW 02:44:28 71° W 02:50:38 10° N
Cosmos 2016 Rocket 4.3 02:39:18 10° N 02:45:23 68° E 02:51:27 10° SSE
CZ-2C R/B 2.5 02:41:41 10° N 02:46:47 61° WNW 02:51:14 14° SSW
Cosmos 372 Rocket 4.1 02:44:28 10° NNW 02:49:38 77° ENE 02:54:43 10° SSE
Cosmos 2061 Rocket 4.3 02:45:30 10° N 02:51:57 76° E 02:58:22 10° S
Cosmos 2322 Rocket 3.3 02:54:20 23° W 02:55:47 25° WNW 03:00:28 10° N
Cosmos 1844 Rocket 2.8 02:51:08 10° NNW 02:56:49 81° ENE 03:02:29 10° SSE
Cosmos 1515 4.0 02:56:18 10° S 03:00:03 67° E 03:03:49 10° NNE
Cosmos 1484 Rocket 3.0 02:56:10 10° NNE 03:00:11 75° E 03:04:10 10° S
Cosmos 1898 Rocket 4.4 02:56:05 10° NW 03:00:27 27° W 03:04:49 10° SSW
Meteor 1-11 Rocket 4.4 02:59:23 10° NNW 03:04:18 31° W 03:09:07 10° SSW
X-37B 1.4 03:04:31 30° WSW 03:05:08 32° SW 03:08:01 10° SSE
Cosmos 1844 3.8 02:59:47 10° NNW 03:05:22 77° ENE 03:10:55 10° SSE
Okean 1 3.2 03:03:15 10° SSW 03:07:16 71° W 03:11:19 10° N
Hubble Space Telescope 3.2 03:05:44 10° S 03:07:23 12° SSE 03:09:02 10° SE
Cosmos 1725 Rocket 4.0 03:01:50 10° N 03:08:02 85° E 03:14:13 10° S
SL-16 R/B 3.7 03:06:39 16° WNW 03:08:10 17° NW 03:11:48 10° NNW
COSMO-SKYMED 1 4.3 03:04:33 10° SE 03:08:30 35° ENE 03:12:29 10° N
Intercosmos 25 3.1 03:04:40 10° SSW 03:08:42 57° W 03:11:54 10° N
Meteor 1-31 Rocket 2.8 03:09:11 10° NNE 03:13:02 86° ESE 03:16:54 10° SSW
Cosmos 2298 Rocket 4.1 03:08:35 10° NNW 03:13:55 85° ENE 03:19:12 10° SSE
Cosmos 1437 Rocket 3.0 03:10:46 10° SSW 03:14:21 42° WNW 03:18:02 10° N
Cosmos 2100 Rocket 4.4 03:10:53 10° NNW 03:16:47 41° W 03:22:38 10° SSW
deb Chang Zheng 4 3.7 03:14:15 10° N 03:18:24 52° WNW 03:22:32 10° SSW
Cosmos 1937 Rocket 4.4 03:15:51 10° NW 03:19:54 24° W 03:23:57 10° SSW
Cosmos 1459 Rocket 4.3 03:15:20 10° NNW 03:20:55 40° W 03:26:28 10° SSW
Cosmos 2219 Rocket 2.2 03:18:04 10° SSW 03:23:44 76° WNW 03:29:26 10° NNE
Cosmos 1703 Rocket 3.4 03:21:18 10° SSW 03:25:35 72° W 03:29:57 10° N
Okean 1-7 2.9 03:22:16 10° S 03:26:31 78° W 03:30:47 10° N
Cosmos 1782 Rocket 4.3 03:22:10 10° N 03:26:36 59° E 03:30:58 10° SSE
Cosmos 1536 4.4 03:24:28 10° NW 03:26:57 16° W 03:29:25 10° SW
Cosmos 1802 Rocket 4.3 03:21:11 10° NNW 03:27:03 45° W 03:33:00 10° SSW
Cosmos 1908 Rocket 3.5 03:23:23 10° NNW 03:27:51 70° W 03:32:17 10° S
Meteor 2-4 Rocket 4.0 03:25:01 10° S 03:30:27 71° E 03:35:49 10° NNE
Cosmos 2123 Rocket 4.2 03:27:10 10° SSW 03:33:09 48° W 03:39:14 10° N
Cosmos 1125 Rocket 3.7 03:28:03 10° NNW 03:33:21 78° ENE 03:38:34 10° SSE
ADEOS Rocket 3.5 03:28:12 10° SSW 03:34:28 40° W 03:40:12 10° NNW
CZ-4B R/B 2.5 03:32:18 10° NNE 03:35:55 88° W 03:39:29 10° SSW
NOSS 3-4 (A) 4.3 03:29:43 10° NW 03:36:31 43° WSW 03:43:55 10° S
NOSS 3-4 (C) 4.3 03:29:49 10° NW 03:36:38 44° WSW 03:44:01 10° S
CZ-4B R/B 2.2 03:35:01 10° SSW 03:37:45 26° W 03:40:32 10° NW
FALCON 9 DEB 3.9 03:35:42 10° SSW 03:38:43 46° SE 03:41:44 10° ENE
ERS-2 3.7 03:36:40 10° SW 03:39:01 16° W 03:41:22 10° NW
CZ-4B R/B 4.4 03:36:16 10° N 03:40:30 46° WNW 03:44:46 10° SW
Cosmos 2150 Rocket 4.1 03:36:09 10° NNW 03:41:29 58° WSW 03:46:43 10° S
Cosmos 2237 Rocket 3.3 03:37:56 10° S 03:43:22 50° ESE 03:48:48 10° NNE
ARGOS Delta rocket 4.2 03:39:29 10° NNE 03:44:06 69° E 03:48:55 10° S
COSMOS 2428 2.9 03:40:50 10° SW 03:46:26 57° WNW 03:52:06 10° NNE
